,,,PA_Meas_PMT16A,,PR_Meas_QMR101_102,,RH_Meas_QMH101,,SR_Meas_QMS101,,TA_Meas_QMH101,,GenWind,,GenWind,
date,time,status,PA,status,PR,status,RH,status,SR,status,TA,status,DirAvg,status,SpdAvg,
2011-11-24, 00:00:04,VALID,1002.7,VALID,0,VALID,92.1645,VALID,0,VALID,25.0255,VALID,24,VALID,0,
2011-11-24, 00:01:04,VALID,1002.71,VALID,0,VALID,92.3247,VALID,0,VALID,25.006,VALID,24,VALID,0,
2011-11-24, 00:02:04,VALID,1002.71,VALID,0,VALID,92.4086,VALID,0,VALID,25.0274,VALID,24,VALID,0.564844,
2011-11-24, 00:03:04,VALID,1002.7,VALID,0,VALID,92.4468,VALID,0,VALID,24.9866,VALID,24,VALID,0.528906,
2011-11-24, 00:04:04,VALID,1002.7,VALID,0,VALID,92.5612,VALID,0.0815089,VALID,24.9866,VALID,24,VALID,0.377344,
2011-11-24, 00:05:04,VALID,1002.68,VALID,0,VALID,92.6604,VALID,0,VALID,24.9671,VALID,24,VALID,0.446484,
2011-11-24, 00:06:04,VALID,1002.71,VALID,0,VALID,92.668,VALID,0,VALID,24.9495,VALID,24,VALID,0.312891,
2011-11-24, 00:07:04,VALID,1002.74,VALID,0,VALID,92.7062,VALID,0,VALID,24.93,VALID,24,VALID,0.23125,
2011-11-24, 00:08:04,VALID,1002.74,VALID,0,VALID,92.7519,VALID,0,VALID,24.8911,VALID,24,VALID,0,
2011-11-24, 00:09:04,VALID,1002.77,VALID,0,VALID,92.8282,VALID,0,VALID,24.8503,VALID,24,VALID,0.100781,
2011-11-24, 00:10:04,VALID,1002.78,VALID,0,VALID,92.8816,VALID,0,VALID,24.8308,VALID,24,VALID,0,
2011-11-24, 00:11:04,VALID,1002.77,VALID,0,VALID,92.9121,VALID,0.0815089,VALID,24.8308,VALID,24,VALID,0.00117188,
2011-11-24, 00:12:04,VALID,1002.77,VALID,0,VALID,93.0571,VALID,0,VALID,24.8308,VALID,24,VALID,0.380078,
2011-11-24, 00:13:04,VALID,1002.78,VALID,0,VALID,93.1257,VALID,0,VALID,24.8113,VALID,24,VALID,0.292188,
2011-11-24, 00:14:04,VALID,1002.74,VALID,0,VALID,93.1944,VALID,0,VALID,24.7937,VALID,24,VALID,0.392969,
2011-11-24, 00:15:04,VALID,1002.74,VALID,0,VALID,93.3317,VALID,0,VALID,24.7724,VALID,24,VALID,0.495703,
2011-11-24, 00:16:04,VALID,1002.72,VALID,0,VALID,93.3775,VALID,0,VALID,24.7743,VALID,25,VALID,0.552344,
2011-11-24, 00:17:04,VALID,1002.67,VALID,0,VALID,93.347,VALID,0,VALID,24.7335,VALID,25,VALID,0.194141,
2011-11-24, 00:18:04,VALID,1002.7,VALID,0,VALID,93.4004,VALID,0,VALID,24.7548,VALID,25,VALID,0.00351562,
2011-11-24, 00:19:04,VALID,1002.68,VALID,0,VALID,93.408,VALID,0,VALID,24.6945,VALID,25,VALID,0,
2011-11-24, 00:20:04,VALID,1002.67,VALID,0,VALID,93.4538,VALID,0,VALID,24.6945,VALID,25,VALID,0,
2011-11-24, 00:21:04,VALID,1002.67,VALID,0,VALID,93.5453,VALID,0,VALID,24.675,VALID,25,VALID,0,
2011-11-24, 00:22:04,VALID,1002.65,VALID,0,VALID,93.5758,VALID,0,VALID,24.6769,VALID,25,VALID,0,
2011-11-24, 00:23:04,VALID,1002.65,VALID,0,VALID,93.614,VALID,0,VALID,24.6769,VALID,25,VALID,0,
2011-11-24, 00:24:04,VALID,1002.65,VALID,0,VALID,93.7284,VALID,0,VALID,24.6556,VALID,25,VALID,0,
2011-11-24, 00:25:04,VALID,1002.62,VALID,0,VALID,93.7971,VALID,0,VALID,24.675,VALID,25,VALID,0,
2011-11-24, 00:26:04,VALID,1002.59,VALID,0,VALID,93.7971,VALID,0,VALID,24.7159,VALID,25,VALID,0,
2011-11-24, 00:27:04,VALID,1002.55,VALID,0,VALID,93.7971,VALID,0,VALID,24.7159,VALID,25,VALID,0,
2011-11-24, 00:28:04,VALID,1002.51,VALID,0,VALID,93.7589,VALID,0.0815089,VALID,24.714,VALID,25,VALID,0,
2011-11-24, 00:29:04,VALID,1002.48,VALID,0,VALID,93.7437,VALID,0,VALID,24.7159,VALID,25,VALID,0,
2011-11-24, 00:30:04,VALID,1002.42,VALID,0,VALID,93.6826,VALID,0,VALID,24.7159,VALID,25,VALID,0,
2011-11-24, 00:31:04,VALID,1002.38,VALID,0,VALID,93.6598,VALID,0.0815089,VALID,24.675,VALID,25,VALID,0,
2011-11-24, 00:32:04,VALID,1002.34,VALID,0,VALID,93.6674,VALID,0,VALID,24.6556,VALID,25,VALID,0,
2011-11-24, 00:33:04,VALID,1002.29,VALID,0,VALID,93.675,VALID,0,VALID,24.6574,VALID,25,VALID,0,
2011-11-24, 00:34:04,VALID,1002.27,VALID,0,VALID,93.6674,VALID,0,VALID,24.638,VALID,25,VALID,0,
2011-11-24, 00:35:04,VALID,1002.23,VALID,0,VALID,93.675,VALID,0,VALID,24.5972,VALID,25,VALID,0,
2011-11-24, 00:36:04,VALID,1002.2,VALID,0,VALID,93.6979,VALID,0,VALID,24.5972,VALID,25,VALID,0,
2011-11-24, 00:37:04,VALID,1002.2,VALID,0,VALID,93.7361,VALID,0,VALID,24.5777,VALID,25,VALID,0,
2011-11-24, 00:38:04,VALID,1002.16,VALID,0,VALID,93.8047,VALID,0,VALID,24.5796,VALID,25,VALID,0,
2011-11-24, 00:39:04,VALID,1002.11,VALID,0,VALID,93.881,VALID,0,VALID,24.5777,VALID,25,VALID,0,
2011-11-24, 00:40:04,VALID,1002.07,VALID,0,VALID,93.9268,VALID,0,VALID,24.5758,VALID,25,VALID,0,
2011-11-24, 00:41:04,VALID,1002.06,VALID,0,VALID,93.9573,VALID,0,VALID,24.5777,VALID,25,VALID,0,
2011-11-24, 00:42:04,VALID,1002.01,VALID,0,VALID,93.9573,VALID,0,VALID,24.5777,VALID,25,VALID,0,
2011-11-24, 00:43:04,VALID,1001.98,VALID,0,VALID,93.9039,VALID,0,VALID,24.5777,VALID,25,VALID,0,
2011-11-24, 00:44:04,VALID,1001.98,VALID,0,VALID,93.8734,VALID,0,VALID,24.5582,VALID,25,VALID,0,
2011-11-24, 00:45:04,VALID,1001.94,VALID,0,VALID,93.942,VALID,0,VALID,24.5388,VALID,25,VALID,0,
2011-11-24, 00:46:04,VALID,1001.9,VALID,0,VALID,94.0717,VALID,0,VALID,24.5388,VALID,25,VALID,0,
2011-11-24, 00:47:04,VALID,1001.86,VALID,0,VALID,94.0794,VALID,0.0815089,VALID,24.5388,VALID,25,VALID,0,
2011-11-24, 00:48:04,VALID,1001.84,VALID,0,VALID,94.1175,VALID,0,VALID,24.5388,VALID,25,VALID,0,
2011-11-24, 00:49:04,VALID,1001.8,VALID,0,VALID,94.1328,VALID,0,VALID,24.5193,VALID,25,VALID,0,
2011-11-24, 00:50:04,VALID,1001.82,VALID,0,VALID,94.1633,VALID,0,VALID,24.4998,VALID,25,VALID,0,
2011-11-24, 00:51:04,VALID,1001.82,VALID,0,VALID,94.1404,VALID,0.0815089,VALID,24.4785,VALID,25,VALID,0,
2011-11-24, 00:52:04,VALID,1001.78,VALID,0,VALID,94.1556,VALID,0.0815089,VALID,24.4804,VALID,25,VALID,0,
2011-11-24, 00:53:04,VALID,1001.81,VALID,0,VALID,94.1785,VALID,0,VALID,24.4804,VALID,25,VALID,0,
2011-11-24, 00:54:04,VALID,1001.75,VALID,0,VALID,94.1785,VALID,0,VALID,24.4804,VALID,25,VALID,0,
2011-11-24, 00:55:04,VALID,1001.78,VALID,0,VALID,94.2014,VALID,0,VALID,24.4609,VALID,25,VALID,0,
2011-11-24, 00:56:04,VALID,1001.75,VALID,0,VALID,94.209,VALID,0,VALID,24.4414,VALID,25,VALID,0,
2011-11-24, 00:57:04,VALID,1001.74,VALID,0,VALID,94.2701,VALID,0,VALID,24.422,VALID,25,VALID,0,
2011-11-24, 00:58:05,VALID,1001.72,VALID,0,VALID,94.2701,VALID,0.0815089,VALID,24.4006,VALID,25,VALID,0,
2011-11-24, 00:59:05,VALID,1001.72,VALID,0,VALID,94.2548,VALID,0,VALID,24.4025,VALID,25,VALID,0,
2011-11-24, 01:00:05,VALID,1001.72,VALID,0,VALID,94.2472,VALID,0,VALID,24.383,VALID,25,VALID,0,
2011-11-24, 01:01:05,VALID,1001.7,VALID,0,VALID,94.293,VALID,0,VALID,24.4025,VALID,25,VALID,0,
2011-11-24, 01:02:05,VALID,1001.71,VALID,0,VALID,94.415,VALID,0,VALID,24.4025,VALID,25,VALID,0,
2011-11-24, 01:03:05,VALID,1001.72,VALID,0,VALID,94.4455,VALID,0.0815089,VALID,24.4025,VALID,25,VALID,0,
2011-11-24, 01:04:05,VALID,1001.7,VALID,0,VALID,94.4455,VALID,0,VALID,24.3812,VALID,25,VALID,0,
2011-11-24, 01:05:05,VALID,1001.68,VALID,0,VALID,94.4532,VALID,0.0815089,VALID,24.4025,VALID,25,VALID,0,
2011-11-24, 01:06:05,VALID,1001.69,VALID,0,VALID,94.5066,VALID,0.0815089,VALID,24.4025,VALID,25,VALID,0,
2011-11-24, 01:07:05,VALID,1001.65,VALID,0,VALID,94.5981,VALID,0,VALID,24.4433,VALID,25,VALID,0,
2011-11-24, 01:08:05,VALID,1001.61,VALID,0,VALID,94.8804,VALID,0.0815089,VALID,24.4998,VALID,93,VALID,0.775,
2011-11-24, 01:09:05,VALID,1001.55,VALID,0,VALID,94.8117,VALID,0.0815089,VALID,24.4785,VALID,43,VALID,0.00195313,
2011-11-24, 01:10:05,VALID,1001.56,VALID,0,VALID,94.7736,VALID,0.0815089,VALID,24.4998,VALID,38,VALID,0.307813,
2011-11-24, 01:11:05,VALID,1001.53,VALID,0,VALID,94.827,VALID,0,VALID,24.5388,VALID,38,VALID,0,
2011-11-24, 01:12:05,VALID,1001.5,VALID,0,VALID,94.9567,VALID,0.0815089,VALID,24.5564,VALID,38,VALID,0,
2011-11-24, 01:13:05,VALID,1001.5,VALID,0,VALID,94.9338,VALID,0,VALID,24.5953,VALID,38,VALID,0,
2011-11-24, 01:14:05,VALID,1001.49,VALID,0,VALID,94.8728,VALID,0.0815089,VALID,24.675,VALID,38,VALID,0,
2011-11-24, 01:15:05,VALID,1001.45,VALID,0,VALID,94.7888,VALID,0.0815089,VALID,24.675,VALID,38,VALID,0,
2011-11-24, 01:16:05,VALID,1001.43,VALID,0,VALID,94.6973,VALID,0.0815089,VALID,24.6537,VALID,38,VALID,0,
2011-11-24, 01:17:05,VALID,1001.44,VALID,0,VALID,94.621,VALID,0.0815089,VALID,24.6556,VALID,38,VALID,0,
2011-11-24, 01:18:05,VALID,1001.42,VALID,0,VALID,94.5981,VALID,0.0815089,VALID,24.6556,VALID,38,VALID,0,
2011-11-24, 01:19:05,VALID,1001.45,VALID,0,VALID,94.5447,VALID,0,VALID,24.6342,VALID,38,VALID,0,
2011-11-24, 01:20:05,VALID,1001.45,VALID,0,VALID,94.5447,VALID,0.0815089,VALID,24.6556,VALID,38,VALID,0,
2011-11-24, 01:21:05,VALID,1001.45,VALID,0,VALID,94.56,VALID,0.0815089,VALID,24.6166,VALID,38,VALID,0,
2011-11-24, 01:22:05,VALID,1001.44,VALID,0,VALID,94.4837,VALID,0,VALID,24.574,VALID,38,VALID,0,
2011-11-24, 01:23:05,VALID,1001.45,VALID,0,VALID,94.4532,VALID,0.0815089,VALID,24.638,VALID,38,VALID,0,
2011-11-24, 01:24:05,VALID,1001.48,VALID,0,VALID,94.4608,VALID,0.0815089,VALID,24.5777,VALID,38,VALID,0,
2011-11-24, 01:25:05,VALID,1001.48,VALID,0,VALID,94.5066,VALID,0,VALID,24.5972,VALID,38,VALID,0,
2011-11-24, 01:26:05,VALID,1001.47,VALID,0,VALID,94.4989,VALID,0.0815089,VALID,24.5777,VALID,38,VALID,0,
2011-11-24, 01:27:05,VALID,1001.5,VALID,0,VALID,94.5218,VALID,0,VALID,24.5564,VALID,38,VALID,0.30625,
2011-11-24, 01:28:05,VALID,1001.47,VALID,0,VALID,94.56,VALID,0.0815089,VALID,24.5564,VALID,38,VALID,0.432422,
2011-11-24, 01:29:05,VALID,1001.5,VALID,0,VALID,94.6057,VALID,0.0815089,VALID,24.5777,VALID,38,VALID,0.291797,
2011-11-24, 01:30:05,VALID,1001.5,VALID,0,VALID,94.6286,VALID,0.0815089,VALID,24.5972,VALID,38,VALID,0.374219,
2011-11-24, 01:31:05,VALID,1001.54,VALID,0,VALID,94.6286,VALID,0,VALID,24.5758,VALID,38,VALID,0.465625,
2011-11-24, 01:32:05,VALID,1001.5,VALID,0,VALID,94.5752,VALID,0.0815089,VALID,24.5972,VALID,38,VALID,0.153125,
2011-11-24, 01:33:05,VALID,1001.49,VALID,0,VALID,94.4532,VALID,0,VALID,24.5777,VALID,38,VALID,0.294922,
2011-11-24, 01:34:05,VALID,1001.46,VALID,0,VALID,94.3311,VALID,0,VALID,24.5388,VALID,38,VALID,0.300391,
2011-11-24, 01:35:05,VALID,1001.44,VALID,0,VALID,94.415,VALID,0,VALID,24.4998,VALID,38,VALID,0.436719,
2011-11-24, 01:36:05,VALID,1001.41,VALID,0,VALID,94.4989,VALID,0.0815089,VALID,24.4998,VALID,38,VALID,0.367969,
2011-11-24, 01:37:05,VALID,1001.38,VALID,0,VALID,94.6134,VALID,0,VALID,24.5193,VALID,37,VALID,0.564062,
2011-11-24, 01:38:05,VALID,1001.36,VALID,0,VALID,94.5295,VALID,0,VALID,24.498,VALID,37,VALID,0.417188,
2011-11-24, 01:39:05,VALID,1001.32,VALID,0,VALID,94.4989,VALID,0,VALID,24.4785,VALID,37,VALID,0.280469,
2011-11-24, 01:40:05,VALID,1001.31,VALID,0,VALID,94.5066,VALID,0,VALID,24.4804,VALID,37,VALID,0.414844,
2011-11-24, 01:41:05,VALID,1001.26,VALID,0,VALID,94.5523,VALID,0.0815089,VALID,24.4804,VALID,31,VALID,0.587109,
2011-11-24, 01:42:05,VALID,1001.23,VALID,0,VALID,94.5981,VALID,0.0815089,VALID,24.4804,VALID,29,VALID,0.314063,
2011-11-24, 01:43:05,VALID,1001.21,VALID,0,VALID,94.4989,VALID,0,VALID,24.4804,VALID,29,VALID,0.342969,
2011-11-24, 01:44:05,VALID,1001.18,VALID,0,VALID,94.4837,VALID,0,VALID,24.4414,VALID,29,VALID,0.111719,
2011-11-24, 01:45:05,VALID,1001.18,VALID,0,VALID,94.5371,VALID,0.0815089,VALID,24.4201,VALID,29,VALID,0,
2011-11-24, 01:46:05,VALID,1001.2,VALID,0,VALID,94.5676,VALID,0.0815089,VALID,24.422,VALID,29,VALID,0,
2011-11-24, 01:47:05,VALID,1001.2,VALID,0,VALID,94.5752,VALID,0,VALID,24.422,VALID,29,VALID,0,
2011-11-24, 01:48:05,VALID,1001.21,VALID,0,VALID,94.5676,VALID,0,VALID,24.4025,VALID,29,VALID,0.361328,
2011-11-24, 01:49:05,VALID,1001.26,VALID,0,VALID,94.5523,VALID,0,VALID,24.4025,VALID,29,VALID,0.344922,
2011-11-24, 01:50:05,VALID,1001.28,VALID,0,VALID,94.5218,VALID,0,VALID,24.3636,VALID,29,VALID,0.296875,
2011-11-24, 01:51:05,VALID,1001.28,VALID,0,VALID,94.6134,VALID,0,VALID,24.3441,VALID,29,VALID,0.453516,
2011-11-24, 01:52:05,VALID,1001.29,VALID,0,VALID,94.6134,VALID,0,VALID,24.3441,VALID,29,VALID,0.317187,
2011-11-24, 01:53:05,VALID,1001.29,VALID,0,VALID,94.5523,VALID,0,VALID,24.3052,VALID,29,VALID,0.219531,
2011-11-24, 01:54:05,VALID,1001.32,VALID,0,VALID,94.6744,VALID,0,VALID,24.3265,VALID,29,VALID,0.00234375,
2011-11-24, 01:55:05,VALID,1001.35,VALID,0,VALID,94.7431,VALID,0,VALID,24.3459,VALID,29,VALID,0,
2011-11-24, 01:56:05,VALID,1001.32,VALID,0,VALID,94.7965,VALID,0,VALID,24.3246,VALID,29,VALID,0.003125,
2011-11-24, 01:57:05,VALID,1001.34,VALID,0,VALID,94.7736,VALID,0,VALID,24.3441,VALID,29,VALID,0.400391,
2011-11-24, 01:58:05,VALID,1001.37,VALID,0,VALID,94.7049,VALID,0,VALID,24.3246,VALID,29,VALID,0.285937,
2011-11-24, 01:59:05,VALID,1001.41,VALID,0,VALID,94.7583,VALID,0,VALID,24.3246,VALID,29,VALID,0.377344,
2011-11-24, 02:00:05,VALID,1001.42,VALID,0,VALID,94.8041,VALID,0,VALID,24.3441,VALID,29,VALID,0.392578,
2011-11-24, 02:01:05,VALID,1001.42,VALID,0,VALID,94.7965,VALID,0.0815089,VALID,24.3228,VALID,29,VALID,0.369141,
2011-11-24, 02:02:05,VALID,1001.44,VALID,0,VALID,94.8117,VALID,0,VALID,24.3441,VALID,29,VALID,0.429688,
2011-11-24, 02:03:05,VALID,1001.4,VALID,0,VALID,94.8651,VALID,0,VALID,24.3441,VALID,29,VALID,0.250391,
2011-11-24, 02:04:05,VALID,1001.41,VALID,0,VALID,94.9338,VALID,0,VALID,24.3441,VALID,29,VALID,0.107422,
2011-11-24, 02:05:05,VALID,1001.35,VALID,0,VALID,94.9262,VALID,0,VALID,24.383,VALID,29,VALID,0,
2011-11-24, 02:06:05,VALID,1001.33,VALID,0,VALID,94.9719,VALID,0,VALID,24.4025,VALID,29,VALID,0,
2011-11-24, 02:07:05,VALID,1001.31,VALID,0,VALID,94.9414,VALID,0,VALID,24.4025,VALID,29,VALID,0,
2011-11-24, 02:08:05,VALID,1001.31,VALID,0,VALID,94.9033,VALID,0,VALID,24.4025,VALID,29,VALID,0,
2011-11-24, 02:09:05,VALID,1001.28,VALID,0,VALID,94.9338,VALID,0.0815089,VALID,24.3812,VALID,29,VALID,0,
2011-11-24, 02:10:05,VALID,1001.23,VALID,0,VALID,94.9185,VALID,0,VALID,24.4025,VALID,29,VALID,0.204688,
2011-11-24, 02:11:05,VALID,1001.21,VALID,0,VALID,94.8651,VALID,0,VALID,24.383,VALID,31,VALID,0.530078,
2011-11-24, 02:12:05,VALID,1001.18,VALID,0,VALID,95.0024,VALID,0,VALID,24.4025,VALID,45,VALID,0.529297,
2011-11-24, 02:13:05,VALID,1001.12,VALID,0,VALID,94.949,VALID,0,VALID,24.383,VALID,45,VALID,0.497656,
2011-11-24, 02:14:05,VALID,1001.09,VALID,0,VALID,95.0482,VALID,0,VALID,24.422,VALID,46,VALID,0.470703,
2011-11-24, 02:15:05,VALID,1001.05,VALID,0,VALID,94.9872,VALID,0,VALID,24.4025,VALID,46,VALID,0.365625,
2011-11-24, 02:16:05,VALID,1001.03,VALID,0,VALID,94.9567,VALID,0,VALID,24.4025,VALID,46,VALID,0.228906,
2011-11-24, 02:17:05,VALID,1000.99,VALID,0,VALID,94.949,VALID,0,VALID,24.3636,VALID,46,VALID,0.00976563,
2011-11-24, 02:18:05,VALID,1000.96,VALID,0,VALID,94.9109,VALID,0,VALID,24.3636,VALID,46,VALID,0.227344,
2011-11-24, 02:19:05,VALID,1000.95,VALID,0,VALID,94.8728,VALID,0,VALID,24.3228,VALID,46,VALID,0.275781,
2011-11-24, 02:20:05,VALID,1000.93,VALID,0,VALID,94.9414,VALID,0,VALID,24.3441,VALID,46,VALID,0.445703,
2011-11-24, 02:21:05,VALID,1000.93,VALID,0,VALID,94.9338,VALID,0.0815089,VALID,24.3246,VALID,46,VALID,0.283203,
2011-11-24, 02:22:05,VALID,1000.92,VALID,0,VALID,94.9872,VALID,0,VALID,24.3441,VALID,46,VALID,0.214062,
2011-11-24, 02:23:05,VALID,1000.92,VALID,0,VALID,94.9948,VALID,0,VALID,24.3441,VALID,46,VALID,0.112891,
2011-11-24, 02:24:05,VALID,1000.92,VALID,0,VALID,95.0406,VALID,0.0815089,VALID,24.3422,VALID,46,VALID,0.230469,
2011-11-24, 02:25:05,VALID,1000.92,VALID,0,VALID,95.1169,VALID,0,VALID,24.383,VALID,46,VALID,0.00195313,
2011-11-24, 02:26:05,VALID,1000.87,VALID,0,VALID,95.1016,VALID,0,VALID,24.4043,VALID,46,VALID,0.0304688,
2011-11-24, 02:27:05,VALID,1000.86,VALID,0,VALID,95.0864,VALID,0.0815089,VALID,24.3812,VALID,46,VALID,0,
2011-11-24, 02:28:05,VALID,1000.82,VALID,0,VALID,95.0711,VALID,0,VALID,24.383,VALID,46,VALID,0,
2011-11-24, 02:29:05,VALID,1000.8,VALID,0,VALID,95.0635,VALID,0,VALID,24.4043,VALID,46,VALID,0.003125,
2011-11-24, 02:30:05,VALID,1000.8,VALID,0,VALID,95.033,VALID,0,VALID,24.383,VALID,46,VALID,0,
2011-11-24, 02:31:05,VALID,1000.76,VALID,0,VALID,94.9185,VALID,0.0815089,VALID,24.3441,VALID,46,VALID,0,
2011-11-24, 02:32:05,VALID,1000.77,VALID,0,VALID,94.8422,VALID,0.0815089,VALID,24.282,VALID,46,VALID,0,
2011-11-24, 02:33:05,VALID,1000.73,VALID,0,VALID,94.9185,VALID,0,VALID,24.2644,VALID,46,VALID,0,
2011-11-24, 02:34:05,VALID,1000.7,VALID,0,VALID,94.9262,VALID,0.0815089,VALID,24.2857,VALID,46,VALID,0,
2011-11-24, 02:35:05,VALID,1000.69,VALID,0,VALID,94.9033,VALID,0.0815089,VALID,24.2662,VALID,46,VALID,0,
2011-11-24, 02:36:05,VALID,1000.68,VALID,0,VALID,94.9109,VALID,0.0815089,VALID,24.2468,VALID,46,VALID,0,
2011-11-24, 02:37:05,VALID,1000.67,VALID,0,VALID,94.9414,VALID,0.0815089,VALID,24.206,VALID,46,VALID,0,
2011-11-24, 02:38:05,VALID,1000.68,VALID,0,VALID,94.9948,VALID,0.0815089,VALID,24.2273,VALID,46,VALID,0,
2011-11-24, 02:39:05,VALID,1000.7,VALID,0,VALID,95.0253,VALID,0,VALID,24.2486,VALID,46,VALID,0.3375,
2011-11-24, 02:40:05,VALID,1000.7,VALID,0,VALID,95.0787,VALID,0,VALID,24.2273,VALID,46,VALID,0.332031,
2011-11-24, 02:41:05,VALID,1000.71,VALID,0,VALID,95.0406,VALID,0,VALID,24.2273,VALID,46,VALID,0.341406,
2011-11-24, 02:42:05,VALID,1000.72,VALID,0,VALID,95.0787,VALID,0.0815089,VALID,24.2078,VALID,45,VALID,0.243359,
2011-11-24, 02:43:05,VALID,1000.74,VALID,0,VALID,95.0711,VALID,0.0815089,VALID,24.1865,VALID,45,VALID,0.155078,
2011-11-24, 02:44:05,VALID,1000.73,VALID,0,VALID,95.0711,VALID,0.0815089,VALID,24.206,VALID,18,VALID,0.260156,
2011-11-24, 02:45:05,VALID,1000.74,VALID,0,VALID,95.0711,VALID,0.0815089,VALID,24.1865,VALID,18,VALID,0.391016,
2011-11-24, 02:46:05,VALID,1000.72,VALID,0,VALID,95.0864,VALID,0,VALID,24.2097,VALID,18,VALID,0.425,
2011-11-24, 02:47:05,VALID,1000.77,VALID,0,VALID,95.1321,VALID,0,VALID,24.231,VALID,18,VALID,0.359766,
2011-11-24, 02:48:05,VALID,1000.74,VALID,0,VALID,95.155,VALID,0,VALID,24.2097,VALID,18,VALID,0.484375,
2011-11-24, 02:49:05,VALID,1000.74,VALID,0,VALID,95.1932,VALID,0,VALID,24.2078,VALID,18,VALID,0.511328,
2011-11-24, 02:50:05,VALID,1000.76,VALID,0,VALID,95.1855,VALID,0,VALID,24.2291,VALID,15,VALID,0.389844,
2011-11-24, 02:51:05,VALID,1000.77,VALID,0,VALID,95.2466,VALID,0,VALID,24.2468,VALID,15,VALID,0.353516,
2011-11-24, 02:52:05,VALID,1000.79,VALID,0,VALID,95.2542,VALID,0,VALID,24.2273,VALID,350,VALID,0.453125,
2011-11-24, 02:53:05,VALID,1000.81,VALID,0,VALID,95.422,VALID,0,VALID,24.2875,VALID,331,VALID,0.626562,
2011-11-24, 02:54:05,VALID,1000.8,VALID,0,VALID,95.3,VALID,0,VALID,24.307,VALID,342,VALID,0.233203,
2011-11-24, 02:55:05,VALID,1000.83,VALID,0,VALID,95.2923,VALID,0,VALID,24.2857,VALID,342,VALID,0.271875,
2011-11-24, 02:56:05,VALID,1000.8,VALID,0,VALID,95.3229,VALID,0,VALID,24.3052,VALID,342,VALID,0.402734,
2011-11-24, 02:57:05,VALID,1000.82,VALID,0,VALID,95.3839,VALID,0,VALID,24.3459,VALID,342,VALID,0.447656,
2011-11-24, 02:58:05,VALID,1000.81,VALID,0,VALID,95.3305,VALID,0,VALID,24.3849,VALID,342,VALID,0.504297,
2011-11-24, 02:59:05,VALID,1000.81,VALID,0,VALID,95.2542,VALID,0,VALID,24.3849,VALID,343,VALID,0.502734,
2011-11-24, 03:00:05,VALID,1000.84,VALID,0,VALID,95.2542,VALID,0,VALID,24.3849,VALID,347,VALID,0.672656,
2011-11-24, 03:01:05,VALID,1000.85,VALID,0,VALID,95.3,VALID,0.0815089,VALID,24.422,VALID,349,VALID,1.00742,
2011-11-24, 03:02:05,VALID,1000.88,VALID,0,VALID,95.2161,VALID,0,VALID,24.4414,VALID,350,VALID,0.578516,
2011-11-24, 03:03:05,VALID,1000.9,VALID,0,VALID,95.1855,VALID,0.0815089,VALID,24.4804,VALID,345,VALID,1.03984,
2011-11-24, 03:04:05,VALID,1000.89,VALID,0,VALID,95.1169,VALID,0.0815089,VALID,24.5388,VALID,338,VALID,0.772656,
2011-11-24, 03:05:05,VALID,1000.9,VALID,0,VALID,95.0482,VALID,0,VALID,24.6166,VALID,349,VALID,0.96875,
2011-11-24, 03:06:05,VALID,1000.94,VALID,0,VALID,94.8422,VALID,0.0815089,VALID,24.6964,VALID,350,VALID,0.796875,
2011-11-24, 03:07:05,VALID,1000.98,VALID,0,VALID,94.5752,VALID,0.0815089,VALID,24.7121,VALID,349,VALID,1.06133,
2011-11-24, 03:08:05,VALID,1000.97,VALID,0,VALID,94.2014,VALID,0.0815089,VALID,24.7705,VALID,354,VALID,0.764844,
2011-11-24, 03:09:05,VALID,1001.02,VALID,0,VALID,93.82,VALID,0,VALID,24.8503,VALID,351,VALID,0.952344,
2011-11-24, 03:10:05,VALID,1000.98,VALID,0,VALID,93.5301,VALID,0,VALID,24.9263,VALID,14,VALID,1.93047,
2011-11-24, 03:11:05,VALID,1001.01,VALID,0,VALID,92.9426,VALID,0,VALID,25.0839,VALID,354,VALID,1.38477,
2011-11-24, 03:12:05,VALID,1001,VALID,0,VALID,92.462,VALID,0,VALID,25.2007,VALID,359,VALID,1.60977,
2011-11-24, 03:13:05,VALID,1001.02,VALID,0,VALID,91.928,VALID,0,VALID,25.2592,VALID,360,VALID,1.16953,
2011-11-24, 03:14:05,VALID,1001.03,VALID,0,VALID,91.2262,VALID,0.0815089,VALID,25.3546,VALID,17,VALID,2.03477,
2011-11-24, 03:15:05,VALID,1001.01,VALID,0,VALID,90.3412,VALID,0.0815089,VALID,25.5123,VALID,17,VALID,1.1082,
2011-11-24, 03:16:05,VALID,1001.01,VALID,0,VALID,89.5859,VALID,0.0815089,VALID,25.5688,VALID,12,VALID,1.38242,
2011-11-24, 03:17:05,VALID,1001.04,VALID,0,VALID,89.0595,VALID,0.0815089,VALID,25.6292,VALID,25,VALID,1.59883,
2011-11-24, 03:18:05,VALID,1001.09,VALID,0,VALID,88.9451,VALID,0.0815089,VALID,25.6467,VALID,5,VALID,0.867188,
2011-11-24, 03:19:05,VALID,1001.08,VALID,0,VALID,88.701,VALID,0.0815089,VALID,25.6681,VALID,357,VALID,1.625,
2011-11-24, 03:20:05,VALID,1001.04,VALID,0,VALID,88.5332,VALID,0,VALID,25.6876,VALID,360,VALID,1.02227,
2011-11-24, 03:21:05,VALID,1001.05,VALID,0,VALID,88.5255,VALID,0.0815089,VALID,25.6467,VALID,19,VALID,1.55,
2011-11-24, 03:22:05,VALID,1001.06,VALID,0,VALID,88.6018,VALID,0,VALID,25.6486,VALID,9,VALID,0.905859,
2011-11-24, 03:23:05,VALID,1001.06,VALID,0,VALID,88.6781,VALID,0,VALID,25.6292,VALID,356,VALID,0.635938,
2011-11-24, 03:24:05,VALID,1001.05,VALID,0,VALID,88.8307,VALID,0,VALID,25.6311,VALID,355,VALID,0.388672,
2011-11-24, 03:25:05,VALID,1001,VALID,0,VALID,88.8536,VALID,0,VALID,25.5688,VALID,11,VALID,1.25312,
2011-11-24, 03:26:05,VALID,1000.96,VALID,0,VALID,88.762,VALID,0,VALID,25.5883,VALID,42,VALID,1.12148,
2011-11-24, 03:27:05,VALID,1000.96,VALID,0,VALID,88.7849,VALID,0.0815089,VALID,25.6097,VALID,25,VALID,0.350391,
2011-11-24, 03:28:05,VALID,1000.92,VALID,0,VALID,88.9146,VALID,0.0815089,VALID,25.5921,VALID,11,VALID,0.367578,
2011-11-24, 03:29:05,VALID,1000.91,VALID,0,VALID,89.0519,VALID,0,VALID,25.5513,VALID,41,VALID,0.326172,
2011-11-24, 03:30:05,VALID,1000.9,VALID,0,VALID,89.2121,VALID,0,VALID,25.5337,VALID,33,VALID,0.584766,
2011-11-24, 03:31:05,VALID,1000.91,VALID,0,VALID,89.3418,VALID,0,VALID,25.5142,VALID,32,VALID,0.648438,
2011-11-24, 03:32:05,VALID,1000.9,VALID,0,VALID,89.3266,VALID,0,VALID,25.4928,VALID,328,VALID,0.353125,
2011-11-24, 03:33:05,VALID,1000.91,VALID,0,VALID,89.296,VALID,0,VALID,25.4948,VALID,328,VALID,0,
2011-11-24, 03:34:04,VALID,1000.93,VALID,0,VALID,89.3571,VALID,0,VALID,25.4734,VALID,320,VALID,0.728906,
2011-11-24, 03:35:04,VALID,1000.91,VALID,0,VALID,89.3113,VALID,0,VALID,25.4948,VALID,282,VALID,0.0417969,
2011-11-24, 03:36:04,VALID,1000.9,VALID,0,VALID,89.3952,VALID,0,VALID,25.4539,VALID,308,VALID,0.4625,
2011-11-24, 03:37:04,VALID,1000.92,VALID,0,VALID,89.4257,VALID,0,VALID,25.4753,VALID,309,VALID,0.292969,
2011-11-24, 03:38:04,VALID,1000.89,VALID,0,VALID,89.4944,VALID,0,VALID,25.4363,VALID,310,VALID,0.264453,
2011-11-24, 03:39:04,VALID,1000.91,VALID,0,VALID,89.5249,VALID,0,VALID,25.4363,VALID,310,VALID,0.167578,
2011-11-24, 03:40:04,VALID,1000.9,VALID,0,VALID,89.6165,VALID,0,VALID,25.376,VALID,310,VALID,0.270703,
2011-11-24, 03:41:04,VALID,1000.94,VALID,0,VALID,89.7461,VALID,0,VALID,25.3779,VALID,310,VALID,0.305859,
2011-11-24, 03:42:04,VALID,1000.94,VALID,0,VALID,89.8453,VALID,0,VALID,25.3195,VALID,310,VALID,0.0667969,
2011-11-24, 03:43:04,VALID,1000.96,VALID,0,VALID,89.9826,VALID,0,VALID,25.3,VALID,310,VALID,0,
2011-11-24, 03:44:04,VALID,1000.99,VALID,0,VALID,90.2573,VALID,0,VALID,25.2806,VALID,310,VALID,0.155469,
2011-11-24, 03:45:04,VALID,1000.98,VALID,0,VALID,90.3412,VALID,0,VALID,25.2611,VALID,342,VALID,0.377734,
2011-11-24, 03:46:04,VALID,1000.98,VALID,0,VALID,90.4251,VALID,0,VALID,25.2221,VALID,342,VALID,0.333203,
2011-11-24, 03:47:04,VALID,1000.96,VALID,0,VALID,90.448,VALID,0,VALID,25.1832,VALID,342,VALID,0.408984,